Flight Track Log - Related Links

Times and Time Zones

All times are in EDT time to prevent confusion due to time zone crossing. See the EJA815 flight status page for this flight to view local times or setup timezone preferences in your user account.

Time Position Orientation Groundspeed Altitude Reporting Facility
EDT Latitude Longitude Course Direction KTS MPH feet Rate Location/Type
12:45PM 30.4950 -81.7089 21° North 163 188 800  Level Jacksonville Center
12:46PM 30.5075 -81.7231 316° Northwest 193 222 1,700 3,253 Climbing Jacksonville Center
12:47PM 30.5722 -81.7225 360° North 242 278 5,300 3,550 Climbing Jacksonville Center
12:48PM 30.6494 -81.7117 North 290 334 8,800 3,000 Climbing Jacksonville Center
12:49PM 30.7286 -81.6986 North 295 339 11,300 2,300 Climbing Jacksonville Center
12:50PM 30.8161 -81.6711 15° North 300 345 13,400 1,800 Climbing Jacksonville Center
12:51PM 30.9801 -81.2296 21° North  Level FlightAware Approximate
12:51PM 30.9181 -81.6358 17° North 335 386 14,900  Level Jacksonville Center
12:52PM 31.0261 -81.5981 17° North 376 433 16,400 1,500 Climbing Jacksonville Center
12:53PM 31.1386 -81.5575 17° North 419 482 17,900 1,500 Climbing Jacksonville Center
12:54PM 31.2531 -81.5194 16° North 425 489 19,400 1,600 Climbing Jacksonville Center
12:55PM 31.3694 -81.4764 18° North 430 495 21,100 1,550 Climbing Jacksonville Center
12:56PM 31.4756 -81.4383 17° North 435 501 22,500 1,500 Climbing Jacksonville Center
12:57PM 31.6064 -81.3925 17° North 440 506 24,100 1,550 Climbing Jacksonville Center
12:58PM 31.7164 -81.3247 28° Northeast 445 512 25,600 1,450 Climbing Jacksonville Center
12:59PM 31.8156 -81.2594 29° Northeast 450 518 27,000 1,500 Climbing Jacksonville Center
01:00PM 31.9419 -81.1814 28° Northeast 458 527 28,600 1,550 Climbing Jacksonville Center
01:01PM 32.0581 -81.1081 28° Northeast 453 521 30,100 1,250 Climbing Jacksonville Center
01:02PM 32.1697 -81.0347 29° Northeast 458 527 31,100 800 Climbing Jacksonville Center
01:03PM 32.2875 -80.9586 29° Northeast 463 533 31,700 650 Climbing Jacksonville Center
01:04PM 32.3950 -80.8875 29° Northeast 473 544 32,400 1,000 Climbing Jacksonville Center
01:05PM 32.5231 -80.8033 29° Northeast 473 544 33,700 1,150 Climbing Jacksonville Center
01:06PM 32.6264 -80.7367 29° Northeast 473 544 34,700 1,100 Climbing Jacksonville Center
01:07PM 32.7378 -80.6625 29° Northeast 467 537 35,900 1,100 Climbing Jacksonville Center
01:08PM 32.8511 -80.5906 28° Northeast 462 532 36,900 550 Climbing Jacksonville Center
01:09PM 32.9667 -80.5181 28° Northeast 462 532 37,000 50 Climbing Jacksonville Center
01:10PM 33.0886 -80.4531 24° Northeast 462 532 37,000  Level Jacksonville Center
01:11PM 33.2125 -80.3850 25° Northeast 476 548 37,000 500 Level Jacksonville Center
01:12PM 33.3303 -80.3169 26° Northeast 481 554 38,000 950 Climbing Jacksonville Center
01:13PM 33.4456 -80.2514 25° Northeast 469 540 38,900 500 Climbing Jacksonville Center
01:14PM 33.5611 -80.1858 25° Northeast 464 534 39,000 50 Climbing Jacksonville Center
01:15PM 33.6828 -80.1172 25° Northeast 464 534 39,000  Level Jacksonville Center
01:16PM 33.8003 -80.0533 24° Northeast 464 534 39,000  Level Jacksonville Center
01:17PM 33.9197 -79.9844 26° Northeast 464 534 39,000  Level Jacksonville Center
01:18PM 34.0392 -79.9153 26° Northeast 464 534 39,000  Level Jacksonville Center
01:19PM 34.1522 -79.8514 25° Northeast 459 528 39,000  Level Jacksonville Center
01:20PM 34.3311 -79.7489 25° Northeast 449 517 39,000  Level Washington Center
01:21PM 34.4483 -79.6794 26° Northeast 454 522 39,000  Level Washington Center
01:22PM 34.5653 -79.6144 25° Northeast 454 522 39,000  Level Washington Center
01:23PM 34.6800 -79.5494 25° Northeast 454 522 39,000  Level Washington Center
01:24PM 34.7950 -79.4817 26° Northeast 454 522 39,000  Level Washington Center
01:25PM 34.9142 -79.4114 26° Northeast 454 522 39,000  Level Washington Center
01:26PM 35.0289 -79.3433 26° Northeast 454 522 39,000  Level Washington Center
01:27PM 35.1500 -79.2753 25° Northeast 454 522 39,000  Level Washington Center
01:28PM 35.2669 -79.2069 26° Northeast 454 522 39,000 -99 Level Washington Center
01:29PM 35.3858 -79.1358 26° Northeast 461 531 38,800 -610 Descending Washington Center
01:30PM 35.5006 -79.0694 25° Northeast 456 525 37,800 -1,059 Descending Washington Center
01:31PM 35.6192 -79.0031 24° Northeast 456 525 36,700 -893 Descending Washington Center
01:32PM 35.7472 -78.9753 10° North 456 525 36,000 -350 Descending Washington Center
01:33PM 35.8878 -78.9481 North 456 525 36,000 -50 Level Washington Center
01:34PM 36.0192 -78.9511 359° North 461 531 35,900 -1,412 Descending Washington Center
01:35PM 36.1483 -78.9592 357° North 461 531 33,200 -2,672 Descending Washington Center
01:36PM 36.2747 -78.9156 16° North 461 531 30,600 -2,361 Descending Washington Center
01:37PM 36.3603 -78.8419 35° Northeast 446 513 28,400 -1,785 Descending Washington Center
01:38PM 36.4906 -78.7283 35° Northeast 451 519 27,000 -1,119 Descending Washington Center
01:39PM 36.5972 -78.6422 33° Northeast 456 525 26,200 -1,361 Descending Washington Center
01:40PM 36.6997 -78.5478 36° Northeast 456 525 24,300 -1,721 Descending Washington Center
01:41PM 36.7911 -78.4733 33° Northeast 449 517 22,700 -1,160 Descending Washington Center
01:42PM 36.8914 -78.3836 36° Northeast 444 511 22,000 -353 Descending Washington Center
01:43PM 37.0042 -78.2864 35° Northeast 444 511 22,000  Level Washington Center
01:44PM 37.0933 -78.2086 35° Northeast 444 511 22,000  Level Washington Center
01:45PM 37.1933 -78.1208 35° Northeast 437 503 22,000  Level Washington Center
01:46PM 37.2953 -78.0356 34° Northeast 432 497 22,000  Level Washington Center
01:47PM 37.3972 -77.9447 35° Northeast 437 503 22,000  Level Washington Center
01:48PM 37.4969 -77.8586 34° Northeast 437 503 22,000 -864 Level Washington Center
01:49PM 37.6006 -77.7858 29° Northeast 425 489 20,300 -1,815 Descending Washington Center
01:50PM 37.7036 -77.7283 24° Northeast 409 471 18,400 -1,884 Descending Washington Center
01:51PM 37.8092 -77.6656 25° Northeast 409 471 16,500 -1,785 Descending Washington Center
01:52PM 37.9103 -77.6078 24° Northeast 403 464 14,800 -1,736 Descending Washington Center
01:53PM 38.0114 -77.5472 25° Northeast 403 464 13,000 -1,627 Descending Washington Center
01:54PM 38.1039 -77.4942 24° Northeast 388 447 11,600 -1,475 Descending Washington Center
01:55PM 38.2083 -77.4783 North 375 432 10,100 -793 Descending Washington Center
01:56PM 38.3169 -77.4706 North 375 432 10,000 -942 Descending Washington Center
01:57PM 38.4025 -77.4675 North 346 398 8,200 -2,231 Descending Washington Center
01:58PM 38.4778 -77.4614 North 307 353 5,500 -2,033 Descending Washington Center
01:59PM 38.5528 -77.4553 North 278 320 4,100 -763 Descending Washington Center
02:00PM 38.6239 -77.4492 North 264 304 4,000 -48 Descending Washington Center
02:01PM 38.7000 -77.4333 North 192 221 4,000 -472 Level Potomac TRACON
02:02PM 38.7500 -77.4333 360° North 193 222 3,000 -595 Descending Potomac TRACON
02:03PM 38.8000 -77.4333 360° North 186 214 2,800 -550 Descending Potomac TRACON
02:04PM 38.8500 -77.4333 360° North 179 206 1,900 -900 Descending Potomac TRACON
02:05PM 38.9000 -77.4333 360° North 146 168 1,000 -900 Descending Potomac TRACON
02:07PM 38.9474 -77.4599 North  Level Estimated
02:14PM 38.9474 -77.4599 195° South  Level Estimated
02:15PM 38.9474 -77.4599 195° South  Level Estimated
02:16PM 38.9474 -77.4599 195° South  Level Estimated
02:17PM 38.9474 -77.4599 195° South  Level Estimated

Login

Don't have an account? Register now (free) for customized features, flight alerts, and more!